Perth, Australia

7:40 AM AWST on August 18, 2017 (GMT +0800)
Perth International

Weather History for YPPH - August, 2013

Change the Weather History Date:

Friday, August 23, 2013

  Actual Average Record
Temperature  
Mean Temperature 60 °F -  
Max Temperature 76 °F 67 °F 76 °F (2013)
Min Temperature 44 °F 48 °F 35 °F (2010)
Degree Days  
Heating Degree Days 5    
Growing Degree Days 10 (Base 50)    
Moisture  
Dew Point 42 °F    
Average Humidity 59    
Maximum Humidity 93    
Minimum Humidity 11    
Precipitation  
Precipitation 0.00 in 0.11 in - ()
Sea Level Pressure  
Sea Level Pressure 30.21 in    
Wind  
Wind Speed 6 mph ()    
Max Wind Speed 12 mph    
Max Gust Speed -    
Visibility 18.6 miles    
Events      
Averages and records for this station are not official NWS values.
T = Trace of Precipitation, MM = Missing Value Source: Averaged Metar Reports

Daily Weather History Graph

Daily Weather History Graph

Search for Another Location

Airport or City:

Trip Planner

Search our weather history database for the weather conditions in past years. The results will help you decide how hot, cold, wet, or windy it might be!

Date:

Astronomy

Aug. 23, 2013 Rise Set
Actual Time 6:43 AM AWST 5:54 PM AWST
Civil Twilight 6:19 AM AWST 6:19 PM AWST
Nautical Twilight 5:50 AM AWST 6:47 PM AWST
Astronomical Twilight 5:22 AM AWST 7:15 PM AWST
Moon 8:24 PM AWST (8/23) 7:44 AM AWST (8/23)
Length of Visible Light 11h 59m
Length of Day
11h 10m
Waning Gibbous, 94% of the Moon is Illuminated
Aug 23
Waning Gibbous
Aug 28
Last Quarter
Sep 5
New
Sep 13
First Quarter
Sep 19
Full

Hourly Weather History & Observations

Time (AWST) Temp. Windchill Dew Point Humidity Pressure Visibility Wind Dir Wind Speed Gust Speed Precip Events Conditions
12:00 AM 49 °F - 44 °F 76% 30.32 in 19 mi ENE 6.9 mph - -   Partly Cloudy
12:00 AM 50.0 °F - 44.6 °F 82% 30.30 in - ENE 6.9 mph - N/A   Clear
12:30 AM 48.2 °F - 44.6 °F 87% 30.30 in - ENE 5.8 mph - N/A   Clear
1:00 AM 48.2 °F - 42.8 °F 82% 30.30 in - ENE 5.8 mph - N/A   Clear
1:30 AM 48.2 °F - 42.8 °F 82% 30.30 in - NE 4.6 mph - N/A   Clear
2:00 AM 48.2 °F - 42.8 °F 82% 30.30 in - ENE 4.6 mph - N/A   Clear
2:30 AM 46.4 °F - 42.8 °F 87% 30.30 in - Calm Calm - N/A   Clear
3:00 AM 47 °F - 43 °F 81% 30.29 in 16 mi Calm Calm - -   Partly Cloudy
3:00 AM 46.4 °F - 42.8 °F 87% 30.27 in - Calm Calm - N/A   Clear
3:30 AM 48.2 °F - 42.8 °F 82% 30.27 in - ENE 5.8 mph - N/A   Clear
4:00 AM 46.4 °F - 42.8 °F 87% 30.27 in - Calm Calm - N/A   Clear
4:30 AM 44.6 °F - 42.8 °F 93% 30.27 in - Calm Calm - N/A   Clear
5:00 AM 48 °F - 43 °F 77% 30.29 in - North 1.2 mph - -  
5:00 AM 48.2 °F - 42.8 °F 82% 30.27 in - North 1.2 mph - N/A   Clear
5:30 AM 48.2 °F - 42.8 °F 82% 30.27 in - NE 8.1 mph - N/A   Clear
6:00 AM 46.4 °F 42.4 °F 42.8 °F 87% 30.27 in - ENE 8.1 mph - N/A   Clear
6:30 AM 48.2 °F - 42.8 °F 82% 30.27 in - NE 8.1 mph - N/A   Clear
7:00 AM 48.2 °F - 42.8 °F 82% 30.27 in - NE 8.1 mph - N/A   Clear
7:30 AM 50.0 °F - 42.8 °F 76% 30.27 in - NE 8.1 mph - N/A   Clear
8:00 AM 53 °F - 43 °F 61% 30.30 in - ENE 10.4 mph - -  
8:00 AM 53.6 °F - 42.8 °F 67% 30.27 in - ENE 10.4 mph - N/A   Clear
8:30 AM 55.4 °F - 42.8 °F 63% 30.27 in - ENE 10.4 mph - N/A   Clear
9:00 AM 58 °F - 44 °F 48% 30.30 in 19 mi ENE 11.5 mph - -   Partly Cloudy
9:00 AM 59.0 °F - 44.6 °F 59% 30.27 in - ENE 11.5 mph - N/A   Clear
9:30 AM 60.8 °F - 44.6 °F 55% 30.27 in - ENE 9.2 mph - N/A   Clear
10:00 AM 64.4 °F - 44.6 °F 49% 30.27 in - ENE 9.2 mph - N/A   Clear
10:30 AM 66.2 °F - 44.6 °F 46% 30.27 in - ENE 10.4 mph - N/A   Clear
11:00 AM 69.8 °F - 44.6 °F 40% 30.27 in - NE 10.4 mph - N/A   Clear
11:30 AM 69.8 °F - 42.8 °F 38% 30.24 in - NNE 9.2 mph - N/A   Clear
12:00 PM 71 °F - 44 °F 26% 30.24 in 19 mi NE 10.4 mph - -   Partly Cloudy
12:00 PM 71.6 °F - 44.6 °F 38% 30.21 in - NE 11.5 mph - N/A   Clear
12:30 PM 71.6 °F - 42.8 °F 35% 30.21 in - NNE 9.2 mph - N/A   Clear
1:00 PM 71.6 °F - 41.0 °F 33% 30.18 in - NNE 8.1 mph - N/A   Clear
1:30 PM 73.4 °F - 42.8 °F 33% 30.18 in - North 4.6 mph - N/A   Clear
2:00 PM 73.4 °F - 41.0 °F 31% 30.15 in - NNE 8.1 mph - N/A   Clear
2:30 PM 73.4 °F - 42.8 °F 33% 30.15 in - NE 6.9 mph - N/A   Clear
3:00 PM 75 °F - 39 °F 17% 30.16 in 19 mi NE 3.5 mph - -   Partly Cloudy
3:00 PM 75.2 °F - 39.2 °F 27% 30.15 in - NE 3.5 mph - N/A   Clear
3:30 PM 75.2 °F - 35.6 °F 24% 30.15 in - NNW 9.2 mph - N/A   Clear
4:00 PM 75.2 °F - 37.4 °F 25% 30.15 in - North 5.8 mph - N/A   Clear
4:30 PM 75.2 °F - 33.8 °F 22% 30.12 in - West 11.5 mph - N/A   Clear
5:00 PM 73 °F - 29 °F 11% 30.14 in - West 8.1 mph - -  
5:00 PM 73.4 °F - 28.4 °F 19% 30.12 in - West 8.1 mph - N/A   Clear
5:30 PM 69.8 °F - 33.8 °F 27% 30.12 in - West 6.9 mph - N/A   Clear
6:00 PM 64 °F - 39 °F 29% 30.15 in 19 mi West 5.8 mph - -   Partly Cloudy
6:00 PM 64.4 °F - 39.2 °F 40% 30.12 in - West 5.8 mph - N/A   Clear
6:30 PM 59.0 °F - 42.8 °F 55% 30.12 in - WSW 3.5 mph - N/A   Clear
7:00 PM 55.4 °F - 41.0 °F 58% 30.15 in - SSW 4.6 mph - N/A   Clear
7:30 PM 55.4 °F - 41.0 °F 58% 30.15 in - ENE 6.9 mph - N/A   Clear
8:00 PM 54 °F - 43 °F 57% 30.15 in - NE 1.2 mph - -  
8:00 PM 53.6 °F - 42.8 °F 67% 30.15 in - NE 1.2 mph - N/A   Clear
8:30 PM 51.8 °F - 44.6 °F 76% 30.15 in - NE 1.2 mph - N/A   Clear
9:00 PM 50 °F - 44 °F 72% 30.16 in 19 mi NNE 5.8 mph - -   Partly Cloudy
9:00 PM 50.0 °F - 44.6 °F 82% 30.15 in - NNE 5.8 mph - N/A   Clear
9:30 PM 51.8 °F - 42.8 °F 71% 30.15 in - NNE 5.8 mph - N/A   Clear
10:00 PM 51.8 °F - 42.8 °F 71% 30.15 in - North 3.5 mph - N/A   Clear
10:30 PM 48.2 °F - 42.8 °F 82% 30.12 in - North 5.8 mph - N/A   Clear
11:00 PM 47 °F - 43 °F 80% 30.14 in - North 4.6 mph - -  
11:00 PM 48.2 °F - 42.8 °F 82% 30.12 in - North 4.6 mph - N/A   Clear
11:30 PM 50.0 °F - 42.8 °F 76% 30.12 in - NNE 4.6 mph - N/A   Clear